STARLINK-37780, 69340

Orbit data source: Space-Track

STARLINK-37780, 69340 is a payload satellite owned by SpaceX/Seattle (US) in SSO that was launched on Wed, 03 Jun 2026 UTC via an FALCON 9 launch vehicle from the Air Force Western Test Range (AFWTR). Payload-class satellites include a variety of spacecraft equipped with specific instruments for various scientific and technological missions. These include communications satellites like Starlink; space stations such as the ISS; scientific satellites like the Hubble; Earth observation satellites from companies like Planet Labs, Umbra, and HawkEye 360; GPS; miniature CubeSats for education and research; and military/defense satellites.

Loading next visibility...
Identifier
69340, 2026-122M
Orbit
SSO
Country
Flag of USUS
Related business
Manufacturer
SpaceX/Seattle
Mission
Operational spacecraft
Bus & Motor
STARLINK V2MO, Unknown motor
Mass
575 kg wet, ~530 kg dry
Launch date (UTC)
2026-06-03 (2 weeks ago)
Launch vehicle
FALCON 9
Launch site
Air Force Western Test Range (AFWTR)
Object type
Payload
Rocket body
Debris
Shape & HBR
Unknown
Radar Cross Section
RCS unknown

Expand to show TLE details & history
Last TLE update: 12 hours ago

TLE from 12 hours ago
0 STARLINK-37780
1 69340U 26122M   26171.41668980 -.02550532  00000-0 -25619-1 0  9992
2 69340  97.2853 201.0545 0001615  96.2915  66.5287 15.68823132  3927
Epoch: 2026-06-20T10:00Z
TLE epoch observation values (Epoch: 2026-06-20T10:00:01.998Z)
Latitude
17.00566°
Longitude
-35.35724°
Altitude
364.357 km
Speed
7.692 km/s
True Right ascension
01h 33m 07s
True Declination
16° 54' 15"
Sunlit
Object was in daylight at epoch
Visualization orbit readout
Latitude
Unknown
Longitude
Unknown
Altitude
Unknown
Speed
Unknown
Apparent Right ascension
Unknown
Apparent Declination
Unknown
Sunlit
N/A
Visualization observer readout
Local Sidereal Time
08:32:46
Azimuth
Unknown
Elevation
Unknown
Doppler factor
Unknown
Orbital elements
Apogee altitude
360.25 km
Perigee altitude
358.074 km
Semi-major axis
6,737.299 km
Eccentricity
0.00016
Inclination
97.2853°
RAAN
201.0545°
Arg. of periapsis
96.2915°
True anomaly
66.54568°
Mean anomaly
66.5287°
Eccentric anomaly
66.53719°
Mean motion
3.92477 °/min
Orbital period
91.73 mins
BSTAR
-0.025619
Loading maneuver chart data...
Computing Atmospheric mass density...
Loading historical data...
Loading historical data...
Loading historical data...
Loading historical data...
Loading historical data...
Loading historical data...
Loading historical data...

Documentation

Showing up to 5 results
|